SCP
0 0 0 0 0 0 0 0 0 0 0 0 0 0 0 -0 0 0 0 0 0 0 1 0 0 0 0 0 0 0 0 0 0 0 0 0 -0 -0 -0 -0 -0 -0 -0
0 0 0 0 0 0 0 0 0 0 0 0 0 0 -0 -0 -0 -0 0 0 0 0 0 1 1 1 1 0 0 0 0 0 0 0 0 -0 -0 0 -0 -0 -0 -0 -0
0 0 0 0 0 0 0 0 0 0 -0 0 0 0 0 0 0 0 0 0 0 0 1 1 0 0 0 0 0 0 0 0 0 0 0 0 -0 -0 -0 -0 -0 -0 0
0 0 0 0 0 0 0 0 0 0 0 0 -0 0 0 0 0 0 0 0 0 0 0 1 0 0 1 0 -0 0 0 0 0 0 0 0 0 -0 -0 -0 -0 0 0
0 0 0 0 0 0 0 0 0 0 -0 0 0 0 0 0 0 0 0 0 0 0 0 1 1 0 0 -0 0 0 0 0 0 0 0 0 0 0 0 -0 -0 0 0
0 0 0 0 0 0 0 0 0 0 0 -0 -0 0 0 0 0 0 0 0 0 0 0 0 1 0 0 -0 0 0 0 1 0 0 0 0 0 0 0 0 0 0 0
0 0 0 0 0 0 0 0 0 0 0 0 -0 -0 -0 0 0 0 0 0 0 0 0 0 0 0 0 0 0 -0 0 1 1 0 0 0 0 0 0 0 0 0 0
0 0 0 0 0 0 0 0 0 0 0 0 0 0 0 0 0 0 0 0 0 0 0 0 0 0 0 0 0 -0 0 1 1 1 0 0 0 0 0 0 0 0 0
0 0 0 0 0 0 0 0 0 0 0 0 0 0 0 0 0 0 0 0 0 0 0 0 0 0 0 -0 -0 -0 -0 0 1 1 1 0 0 0 0 0 0 0 0
0 0 0 0 0 0 0 0 0 0 0 0 0 0 0 0 0 -0 0 0 0 0 0 0 0 0 0 0 -0 -0 -0 -0 0 1 1 0 0 0 0 0 0 0 0
0 0 0 0 0 0 0 0 0 0 0 0 0 0 0 0 0 0 0 0 -0 0 0 0 0 0 0 0 -0 -0 -0 0 -0 0 0 1 0 0 0 0 0 0 0
0 0 0 0 0 0 0 0 0 0 0 0 0 0 0 0 0 0 0 0 0 0 0 0 0 0 0 0 0 0 0 0 0 0 0 0 0 0 0 0 0 0 0
0 0 0 0 0 0 0 0 0 0 0 0 0 0 0 0 0 0 0 0 0 0 -0 0 0 0 0 0 0 0 0 0 0 0 0 0 0 0 0 0 0 0 0
0 0 0 0 0 0 0 0 0 0 0 0 0 0 0 -0 -0 -0 -0 -0 0 0 0 -0 0 -0 0 0 0 0 0 0 0 0 0 0 0 0 0 0 0 0 0
0 0 0 0 0 0 0 0 0 0 0 0 0 0 0 0 0 -0 -0 -0 -0 -0 -0 0 -0 0 0 0 0 0 0 0 0 0 0 0 0 0 0 0 0 0 0
0 0 0 0 0 0 0 0 0 0 0 0 0 0 0 0 0 0 0 -0 0 -0 0 0 0 0 0 0 0 0 0 0 0 0 0 0 0 0 0 0 0 0 0
0 0 0 0 -0 -0 -0 0 0 0 0 0 0 0 0 0 0 0 0 0 0 0 0 0 0 0 0 -0 0 0 0 0 0 0 0 0 0 0 0 0 0 0 0
0 0 0 -0 -0 -0 -0 -0 -0 -0 0 0 0 -0 -0 -0 -0 -0 0 0 0 0 0 0 0 0 0 0 -0 0 0 0 0 0 0 0 0 0 0 0 0 0 0
0 0 0 -0 -0 -0 -0 -0 -0 -0 -0 -0 -0 -0 -0 -0 -0 0 -0 -0 0 0 0 0 0 0 0 0 0 -0 0 0 0 0 0 0 0 0 0 0 0 0 0
0 0 -0 -0 -0 -0 -0 -0 -0 -0 -0 -0 -0 -0 -0 -0 -0 0 0 0 0 0 0 0 0 0 0 0 0 0 0 0 0 0 0 0 0 0 0 0 0 0 0
0 0 -0 -0 -0 -0 -0 -0 -0 -0 -0 0 0 0 -0 -0 -0 0 0 0 0 0 0 0 0 0 0 0 0 0 0 0 0 0 0 0 0 0 0 0 0 0 0
0 0 -0 -0 -0 -0 -0 -0 -0 -0 0 0 0 0 0 -0 -0 0 0 0 0 0 0 0 0 0 0 0 0 0 0 0 0 0 0 0 0 0 0 0 0 0 0
0 0 0 0 -0 -0 -0 -0 -0 -0 0 0 0 0 0 0 0 0 0 0 0 0 0 0 0 0 0 0 0 0 0 0 0 0 0 0 0 0 0 0 0 0 0
0 0 0 0 0 0 -0 -0 -0 0 0 0 0 0 0 0 0 0 0 0 0 0 0 0 0 0 0 0 0 0 0 0 0 0 0 0 0 0 0 0 0 0 0
0 0 0 0 0 0 0 0 0 0 0 0 0 0 0 0 0 0 0 0 0 0 0 0 0 0 0 0 0 0 0 0 0 0 0 0 0 0 0 0 0 0 0
0 0 0 0 0 0 0 0 0 0 0 0 0 0 0 0 0 0 0 0 0 0 0 0 0 0 0 0 0 0 0 0 0 0 0 0 0 0 0 0 0 0 0
Wind_Speed_500mb
21 20 22 25 29 31 32 33 34 34 34 34 33 34 32 34 34 36 35 33 35 33 29 25 22 23 23 24 23 25 25 24 25 22 20 21 25 28 31 34 34 33 33
29 28 32 33 36 41 44 43 43 42 41 40 41 42 44 42 42 37 32 34 33 37 36 33 29 27 25 27 28 26 27 26 28 27 26 26 26 26 27 31 33 36 36
30 35 36 39 40 38 39 43 46 49 53 53 51 51 52 50 45 43 41 36 33 40 44 43 36 31 33 36 36 33 29 30 29 31 31 30 31 30 27 28 29 31 32
24 26 31 36 41 42 42 43 44 46 52 54 55 54 51 48 47 46 43 43 41 37 46 45 41 27 46 40 41 41 40 35 33 32 34 34 36 37 34 33 31 32 33
27 26 29 33 36 41 46 49 52 54 59 56 55 56 54 50 46 48 49 47 41 41 39 37 47 35 44 48 48 50 44 44 42 38 37 35 35 40 39 38 37 37 37
29 32 34 38 41 44 49 52 54 54 61 70 70 70 64 53 52 53 51 54 49 46 35 38 46 37 39 36 45 50 54 51 49 45 43 40 37 38 43 42 42 42 42
41 46 43 42 42 42 45 49 55 58 61 72 76 74 67 55 47 34 26 18 24 24 25 33 40 49 36 41 58 48 60 65 61 54 49 45 43 41 41 43 42 44 44
24 27 29 30 29 29 30 33 36 36 35 43 44 46 38 43 33 20 23 26 26 24 22 26 28 37 42 46 61 66 56 64 67 61 57 52 48 46 45 43 41 42 41
17 19 20 22 23 24 25 26 28 30 27 26 28 20 16 16 59 38 34 38 36 40 40 43 43 37 42 48 58 53 52 56 65 68 63 60 56 53 51 48 45 42 41
18 19 21 23 24 26 25 26 27 28 29 28 17 16 18 30 22 41 48 59 55 47 46 44 51 53 48 53 55 61 66 69 63 66 75 72 69 60 59 55 50 46 44
18 20 22 22 24 26 27 27 27 30 32 33 35 30 18 15 16 26 66 73 68 51 52 54 58 66 67 67 68 68 66 60 57 63 73 85 83 68 65 63 57 52 48
19 22 27 28 27 28 28 25 25 28 31 33 34 35 38 29 30 28 45 70 77 74 66 57 51 49 62 72 79 85 86 78 75 69 69 85 93 85 69 67 65 59 53
19 22 27 28 30 33 30 26 26 31 35 35 35 35 35 32 31 34 41 53 62 88 75 71 55 49 47 52 62 68 73 70 68 83 77 74 87 95 85 71 73 66 61
21 23 27 29 33 34 33 32 29 35 37 37 38 39 41 41 37 37 38 48 65 56 78 69 63 67 50 50 55 60 71 68 67 61 79 81 83 85 88 83 82 71 66
19 19 25 31 36 36 35 32 33 33 37 40 40 40 42 44 43 41 38 37 39 46 74 81 76 87 80 77 70 68 72 80 79 68 57 72 87 86 86 89 85 73 69
14 19 24 31 36 37 37 39 37 35 39 42 45 43 44 46 45 43 41 39 42 53 66 84 95 95 91 83 80 80 75 73 84 92 73 63 75 82 91 96 93 79 74
15 19 23 30 35 38 38 38 39 42 44 45 45 47 47 48 49 50 49 49 53 58 73 87 95 99 99 101 94 83 83 80 77 85 96 71 69 77 88 108 100 88 71
16 21 27 33 38 40 43 43 44 45 47 49 50 52 50 49 50 51 56 59 65 69 72 87 92 104 105 110 99 102 87 89 85 78 89 100 78 70 81 104 120 95 74
19 25 30 34 39 42 43 45 47 47 48 49 51 53 54 52 53 53 56 61 69 73 78 84 97 96 106 104 110 105 103 89 89 80 77 90 100 84 79 80 107 92 81
24 30 34 39 42 42 45 48 49 49 49 49 51 55 56 56 53 52 54 62 69 78 83 92 94 95 94 99 105 105 111 94 87 72 72 69 83 92 77 72 89 93 85
22 29 35 39 43 47 50 53 54 53 53 54 54 58 60 59 54 47 52 62 69 80 88 93 89 94 102 99 95 102 102 98 94 70 69 65 74 87 86 76 85 102 111
22 27 34 38 40 45 52 55 59 59 56 56 58 59 63 61 62 57 53 58 62 74 81 84 93 92 109 107 96 100 99 87 88 62 58 66 66 74 73 79 81 88 92
20 24 30 36 38 43 49 56 60 62 59 57 57 60 68 68 64 65 61 65 68 71 69 74 84 92 107 103 92 98 91 87 83 65 50 61 68 70 70 70 80 88 93
21 24 26 33 40 41 44 51 56 59 62 60 61 61 69 77 75 71 67 70 71 75 76 75 77 86 91 90 88 87 76 80 69 64 67 62 59 72 79 80 85 88 82
21 24 27 31 37 41 43 47 54 61 62 64 62 61 67 78 80 73 68 70 70 75 77 76 70 72 73 73 71 74 79 71 67 74 51 76 69 63 69 73 78 80 69
25 26 29 32 36 43 46 44 50 60 64 65 64 64 65 75 81 73 61 64 67 73 79 83 78 72 61 61 58 58 71 65 59 56 56 65 53 60 43 65 68 71 60
Wind_Direction_500mb
242 253 260 265 272 277 281 280 277 273 273 272 279 284 285 287 295 303 298 301 281 278 285 285 293 303 295 303 296 293 285 276 257 257 254 247 247 244 244 245 242 242 240
252 258 264 270 278 280 278 280 281 278 275 275 274 279 282 284 285 291 297 307 291 280 283 282 280 283 297 296 293 292 291 285 261 255 256 253 245 243 242 243 241 239 239
256 255 259 270 279 286 283 279 278 278 279 278 276 273 276 274 275 280 285 288 290 282 285 274 274 281 289 293 285 289 295 290 276 261 261 258 252 243 241 243 242 236 235
261 264 271 279 285 287 291 293 293 288 281 280 279 277 275 271 270 276 282 284 281 278 276 271 270 298 294 275 275 277 279 285 287 274 268 266 251 244 238 239 239 241 242
275 280 286 287 288 290 292 294 296 298 295 292 288 282 280 280 279 272 273 273 275 278 283 274 275 264 273 279 276 268 269 274 278 281 272 270 258 243 241 241 241 239 242
292 291 291 290 288 286 287 289 293 296 298 298 294 290 286 284 290 288 287 285 279 275 277 286 277 268 287 228 260 269 272 271 271 274 277 274 264 249 243 241 244 245 244
286 281 284 287 291 292 292 293 291 293 293 292 295 292 291 288 279 270 278 282 283 285 270 270 263 266 255 229 241 270 274 269 269 266 268 269 269 257 247 243 242 246 250
300 301 305 310 315 314 310 308 308 308 312 311 318 319 317 308 284 249 260 277 284 284 290 289 279 272 264 269 242 266 261 268 269 266 262 263 263 260 255 247 243 244 245
337 337 337 333 333 333 333 334 332 333 337 336 330 338 328 311 312 310 288 279 280 278 273 273 277 275 262 252 266 248 247 266 261 261 260 259 257 257 256 254 250 249 247
18 20 21 20 17 16 13 11 6 2 356 356 7 340 311 296 317 311 296 301 302 296 283 270 261 259 264 261 258 250 259 269 268 261 258 257 253 253 254 254 254 250 249
37 34 30 27 25 25 29 33 32 25 20 14 7 3 355 327 289 303 306 311 312 310 300 287 276 270 262 259 258 260 264 268 270 266 265 256 255 248 249 250 254 252 250
33 30 24 20 19 17 19 16 16 12 12 9 5 3 1 357 338 328 312 318 319 320 317 310 302 285 274 269 265 265 267 267 265 267 264 258 259 252 245 246 250 250 251
30 30 28 26 21 18 16 11 8 7 9 8 4 358 354 349 337 329 323 321 315 319 320 317 319 311 298 285 271 267 266 260 264 262 261 262 264 256 249 242 246 245 249
30 26 24 25 23 21 17 11 8 0 358 356 357 354 353 348 344 336 326 324 324 319 321 316 318 316 311 302 288 274 263 258 253 262 261 256 259 262 256 245 242 242 246
16 13 19 16 15 12 10 11 6 360 356 352 349 349 348 347 346 345 336 325 318 312 314 309 314 312 309 306 296 284 273 262 248 254 262 254 252 255 258 250 235 241 242
7 9 11 7 7 7 7 6 4 0 356 355 349 345 344 342 343 340 335 326 319 311 294 310 313 315 314 308 303 297 286 272 258 248 255 259 250 249 250 246 232 232 235
5 12 8 1 4 5 5 5 1 359 357 353 348 344 340 339 339 339 337 330 319 313 294 301 309 312 310 312 308 301 294 283 269 254 245 252 252 251 251 244 230 226 226
17 14 8 1 2 3 1 3 1 357 351 349 348 345 339 336 335 337 337 330 328 322 311 301 304 309 310 312 305 306 297 288 278 265 249 244 248 249 249 252 236 225 224
29 21 12 9 8 3 1 1 356 353 349 348 346 342 339 332 330 336 332 327 325 320 314 304 302 302 308 308 310 307 304 294 281 269 258 246 242 244 245 249 238 229 227
42 28 21 18 14 7 3 0 356 351 347 346 344 341 339 337 328 329 322 323 323 321 316 311 304 301 302 305 306 302 303 302 291 272 256 256 245 243 244 242 243 231 232
31 25 22 19 16 11 6 2 358 352 347 344 344 344 342 338 329 315 317 318 320 320 319 313 304 303 303 304 298 300 289 295 293 279 251 254 249 240 236 234 237 234 235
24 19 17 15 10 6 4 1 359 354 348 344 343 344 345 341 334 325 313 318 314 317 317 315 307 302 303 303 303 297 287 277 279 280 251 254 255 239 239 236 238 225 218
12 12 10 7 6 360 356 356 357 355 350 348 344 343 344 346 336 326 323 316 317 318 321 316 308 306 303 299 297 291 284 274 270 260 266 248 245 241 245 246 232 228 219
357 1 1 357 358 356 345 347 349 349 350 349 347 342 342 343 342 333 323 319 319 320 326 322 317 310 299 294 288 282 279 278 269 251 248 237 243 237 244 241 231 217 207
346 348 351 344 340 346 336 337 341 344 345 344 346 341 341 342 341 334 324 320 320 322 326 324 324 318 303 296 287 271 265 258 256 246 247 228 238 235 237 234 227 207 203
332 334 337 333 329 334 337 327 337 338 338 336 340 340 341 342 340 336 325 322 321 326 329 333 335 335 326 309 295 259 259 251 242 255 248 214 220 224 207 220 204 196 193
Wind_Speed_850mb
21 20 22 25 29 31 32 33 34 34 34 34 33 34 32 34 34 36 35 33 35 33 29 25 22 23 23 24 23 25 25 24 25 22 20 21 25 28 31 34 34 33 33
29 28 32 33 36 41 44 43 43 42 41 40 41 42 44 42 42 37 32 34 33 37 36 33 29 27 25 27 28 26 27 26 28 27 26 26 26 26 27 31 33 36 36
30 35 36 39 40 38 39 43 46 49 53 53 51 51 52 50 45 43 41 36 33 40 44 43 36 31 33 36 36 33 29 30 29 31 31 30 31 30 27 28 29 31 32
24 26 31 36 41 42 42 43 44 46 52 54 55 54 51 48 47 46 43 43 41 37 46 45 41 27 46 40 41 41 40 35 33 32 34 34 36 37 34 33 31 32 33
27 26 29 33 36 41 46 49 52 54 59 56 55 56 54 50 46 48 49 47 41 41 39 37 47 35 44 48 48 50 44 44 42 38 37 35 35 40 39 38 37 37 37
29 32 34 38 41 44 49 52 54 54 61 70 70 70 64 53 52 53 51 54 49 46 35 38 46 37 39 36 45 50 54 51 49 45 43 40 37 38 43 42 42 42 42
41 46 43 42 42 42 45 49 55 58 61 72 76 74 67 55 47 34 26 18 24 24 25 33 40 49 36 41 58 48 60 65 61 54 49 45 43 41 41 43 42 44 44
24 27 29 30 29 29 30 33 36 36 35 43 44 46 38 43 33 20 23 26 26 24 22 26 28 37 42 46 61 66 56 64 67 61 57 52 48 46 45 43 41 42 41
17 19 20 22 23 24 25 26 28 30 27 26 28 20 16 16 59 38 34 38 36 40 40 43 43 37 42 48 58 53 52 56 65 68 63 60 56 53 51 48 45 42 41
18 19 21 23 24 26 25 26 27 28 29 28 17 16 18 30 22 41 48 59 55 47 46 44 51 53 48 53 55 61 66 69 63 66 75 72 69 60 59 55 50 46 44
18 20 22 22 24 26 27 27 27 30 32 33 35 30 18 15 16 26 66 73 68 51 52 54 58 66 67 67 68 68 66 60 57 63 73 85 83 68 65 63 57 52 48
19 22 27 28 27 28 28 25 25 28 31 33 34 35 38 29 30 28 45 70 77 74 66 57 51 49 62 72 79 85 86 78 75 69 69 85 93 85 69 67 65 59 53
19 22 27 28 30 33 30 26 26 31 35 35 35 35 35 32 31 34 41 53 62 88 75 71 55 49 47 52 62 68 73 70 68 83 77 74 87 95 85 71 73 66 61
21 23 27 29 33 34 33 32 29 35 37 37 38 39 41 41 37 37 38 48 65 56 78 69 63 67 50 50 55 60 71 68 67 61 79 81 83 85 88 83 82 71 66
19 19 25 31 36 36 35 32 33 33 37 40 40 40 42 44 43 41 38 37 39 46 74 81 76 87 80 77 70 68 72 80 79 68 57 72 87 86 86 89 85 73 69
14 19 24 31 36 37 37 39 37 35 39 42 45 43 44 46 45 43 41 39 42 53 66 84 95 95 91 83 80 80 75 73 84 92 73 63 75 82 91 96 93 79 74
15 19 23 30 35 38 38 38 39 42 44 45 45 47 47 48 49 50 49 49 53 58 73 87 95 99 99 101 94 83 83 80 77 85 96 71 69 77 88 108 100 88 71
16 21 27 33 38 40 43 43 44 45 47 49 50 52 50 49 50 51 56 59 65 69 72 87 92 104 105 110 99 102 87 89 85 78 89 100 78 70 81 104 120 95 74
19 25 30 34 39 42 43 45 47 47 48 49 51 53 54 52 53 53 56 61 69 73 78 84 97 96 106 104 110 105 103 89 89 80 77 90 100 84 79 80 107 92 81
24 30 34 39 42 42 45 48 49 49 49 49 51 55 56 56 53 52 54 62 69 78 83 92 94 95 94 99 105 105 111 94 87 72 72 69 83 92 77 72 89 93 85
22 29 35 39 43 47 50 53 54 53 53 54 54 58 60 59 54 47 52 62 69 80 88 93 89 94 102 99 95 102 102 98 94 70 69 65 74 87 86 76 85 102 111
22 27 34 38 40 45 52 55 59 59 56 56 58 59 63 61 62 57 53 58 62 74 81 84 93 92 109 107 96 100 99 87 88 62 58 66 66 74 73 79 81 88 92
20 24 30 36 38 43 49 56 60 62 59 57 57 60 68 68 64 65 61 65 68 71 69 74 84 92 107 103 92 98 91 87 83 65 50 61 68 70 70 70 80 88 93
21 24 26 33 40 41 44 51 56 59 62 60 61 61 69 77 75 71 67 70 71 75 76 75 77 86 91 90 88 87 76 80 69 64 67 62 59 72 79 80 85 88 82
21 24 27 31 37 41 43 47 54 61 62 64 62 61 67 78 80 73 68 70 70 75 77 76 70 72 73 73 71 74 79 71 67 74 51 76 69 63 69 73 78 80 69
25 26 29 32 36 43 46 44 50 60 64 65 64 64 65 75 81 73 61 64 67 73 79 83 78 72 61 61 58 58 71 65 59 56 56 65 53 60 43 65 68 71 60
Wind_Direction_850mb
242 253 260 265 272 277 281 280 277 273 273 272 279 284 285 287 295 303 298 301 281 278 285 285 293 303 295 303 296 293 285 276 257 257 254 247 247 244 244 245 242 242 240
252 258 264 270 278 280 278 280 281 278 275 275 274 279 282 284 285 291 297 307 291 280 283 282 280 283 297 296 293 292 291 285 261 255 256 253 245 243 242 243 241 239 239
256 255 259 270 279 286 283 279 278 278 279 278 276 273 276 274 275 280 285 288 290 282 285 274 274 281 289 293 285 289 295 290 276 261 261 258 252 243 241 243 242 236 235
261 264 271 279 285 287 291 293 293 288 281 280 279 277 275 271 270 276 282 284 281 278 276 271 270 298 294 275 275 277 279 285 287 274 268 266 251 244 238 239 239 241 242
275 280 286 287 288 290 292 294 296 298 295 292 288 282 280 280 279 272 273 273 275 278 283 274 275 264 273 279 276 268 269 274 278 281 272 270 258 243 241 241 241 239 242
292 291 291 290 288 286 287 289 293 296 298 298 294 290 286 284 290 288 287 285 279 275 277 286 277 268 287 228 260 269 272 271 271 274 277 274 264 249 243 241 244 245 244
286 281 284 287 291 292 292 293 291 293 293 292 295 292 291 288 279 270 278 282 283 285 270 270 263 266 255 229 241 270 274 269 269 266 268 269 269 257 247 243 242 246 250
300 301 305 310 315 314 310 308 308 308 312 311 318 319 317 308 284 249 260 277 284 284 290 289 279 272 264 269 242 266 261 268 269 266 262 263 263 260 255 247 243 244 245
337 337 337 333 333 333 333 334 332 333 337 336 330 338 328 311 312 310 288 279 280 278 273 273 277 275 262 252 266 248 247 266 261 261 260 259 257 257 256 254 250 249 247
18 20 21 20 17 16 13 11 6 2 356 356 7 340 311 296 317 311 296 301 302 296 283 270 261 259 264 261 258 250 259 269 268 261 258 257 253 253 254 254 254 250 249
37 34 30 27 25 25 29 33 32 25 20 14 7 3 355 327 289 303 306 311 312 310 300 287 276 270 262 259 258 260 264 268 270 266 265 256 255 248 249 250 254 252 250
33 30 24 20 19 17 19 16 16 12 12 9 5 3 1 357 338 328 312 318 319 320 317 310 302 285 274 269 265 265 267 267 265 267 264 258 259 252 245 246 250 250 251
30 30 28 26 21 18 16 11 8 7 9 8 4 358 354 349 337 329 323 321 315 319 320 317 319 311 298 285 271 267 266 260 264 262 261 262 264 256 249 242 246 245 249
30 26 24 25 23 21 17 11 8 0 358 356 357 354 353 348 344 336 326 324 324 319 321 316 318 316 311 302 288 274 263 258 253 262 261 256 259 262 256 245 242 242 246
16 13 19 16 15 12 10 11 6 360 356 352 349 349 348 347 346 345 336 325 318 312 314 309 314 312 309 306 296 284 273 262 248 254 262 254 252 255 258 250 235 241 242
7 9 11 7 7 7 7 6 4 0 356 355 349 345 344 342 343 340 335 326 319 311 294 310 313 315 314 308 303 297 286 272 258 248 255 259 250 249 250 246 232 232 235
5 12 8 1 4 5 5 5 1 359 357 353 348 344 340 339 339 339 337 330 319 313 294 301 309 312 310 312 308 301 294 283 269 254 245 252 252 251 251 244 230 226 226
17 14 8 1 2 3 1 3 1 357 351 349 348 345 339 336 335 337 337 330 328 322 311 301 304 309 310 312 305 306 297 288 278 265 249 244 248 249 249 252 236 225 224
29 21 12 9 8 3 1 1 356 353 349 348 346 342 339 332 330 336 332 327 325 320 314 304 302 302 308 308 310 307 304 294 281 269 258 246 242 244 245 249 238 229 227
42 28 21 18 14 7 3 0 356 351 347 346 344 341 339 337 328 329 322 323 323 321 316 311 304 301 302 305 306 302 303 302 291 272 256 256 245 243 244 242 243 231 232
31 25 22 19 16 11 6 2 358 352 347 344 344 344 342 338 329 315 317 318 320 320 319 313 304 303 303 304 298 300 289 295 293 279 251 254 249 240 236 234 237 234 235
24 19 17 15 10 6 4 1 359 354 348 344 343 344 345 341 334 325 313 318 314 317 317 315 307 302 303 303 303 297 287 277 279 280 251 254 255 239 239 236 238 225 218
12 12 10 7 6 360 356 356 357 355 350 348 344 343 344 346 336 326 323 316 317 318 321 316 308 306 303 299 297 291 284 274 270 260 266 248 245 241 245 246 232 228 219
357 1 1 357 358 356 345 347 349 349 350 349 347 342 342 343 342 333 323 319 319 320 326 322 317 310 299 294 288 282 279 278 269 251 248 237 243 237 244 241 231 217 207
346 348 351 344 340 346 336 337 341 344 345 344 346 341 341 342 341 334 324 320 320 322 326 324 324 318 303 296 287 271 265 258 256 246 247 228 238 235 237 234 227 207 203
332 334 337 333 329 334 337 327 337 338 338 336 340 340 341 342 340 336 325 322 321 326 329 333 335 335 326 309 295 259 259 251 242 255 248 214 220 224 207 220 204 196 193